KZR118 UAAA-UGTB

Flight info

Callsign KZR118
Flight time N/A
Altitude 36000
Route EKLAT1B EKLAT Z370 TOMGO M610 ARBOL Z621 GENDI N147 OTBOR/N0451F360 A480 TIMGA B476 METKA L88 NIJAT N644 ADEKI DCT LAMUS
Aircraft A321/M-SDE3FGHIRWY/LB1

Departure

Time 2026-04-20 09:39
Airport Almaty International Airport (UAAA)

Arrival

Time N/A
Airport Tbilisi International Airport (UGTB)
Time Latitude Longitude Altitude Speed Heading
2026-04-20 09:07 43.34876 77.01358 2229 ft 0 kts 246°
2026-04-20 09:10 43.34876 77.01359 2229 ft 0 kts 246°
2026-04-20 09:28 43.34881 77.01372 2229 ft 2 kts 245°
2026-04-20 09:28 43.34887 77.01393 2224 ft 2 kts 246°
2026-04-20 09:28 43.34894 77.01414 2224 ft 2 kts 247°
2026-04-20 09:28 43.34900 77.01435 2224 ft 2 kts 246°
2026-04-20 09:29 43.34908 77.01455 2224 ft 2 kts 213°
2026-04-20 09:29 43.34924 77.01463 2225 ft 2 kts 176°
2026-04-20 09:29 43.34940 77.01459 2227 ft 2 kts 163°
2026-04-20 09:29 43.34953 77.01453 2224 ft 1 kts 157°
2026-04-20 09:30 43.34956 77.01452 2225 ft 0 kts 156°
2026-04-20 09:32 43.34950 77.01456 2225 ft 2 kts 156°
2026-04-20 09:33 43.34933 77.01466 2224 ft 3 kts 156°
2026-04-20 09:33 43.34908 77.01481 2226 ft 5 kts 156°
2026-04-20 09:33 43.34874 77.01501 2226 ft 6 kts 158°
2026-04-20 09:33 43.34830 77.01501 2229 ft 7 kts 192°
2026-04-20 09:34 43.34779 77.01478 2225 ft 8 kts 198°
2026-04-20 09:34 43.34722 77.01451 2226 ft 7 kts 199°
2026-04-20 09:34 43.34648 77.01458 2225 ft 5 kts 161°
2026-04-20 09:35 43.34612 77.01463 2227 ft 6 kts 178°
2026-04-20 09:35 43.34569 77.01476 2227 ft 7 kts 159°
2026-04-20 09:35 43.34521 77.01504 2229 ft 8 kts 156°
2026-04-20 09:35 43.34467 77.01538 2226 ft 9 kts 155°
2026-04-20 09:36 43.34406 77.01577 2228 ft 10 kts 155°
2026-04-20 09:36 43.34338 77.01619 2229 ft 11 kts 155°
2026-04-20 09:36 43.34275 77.01658 2228 ft 1 kts 155°
2026-04-20 09:36 43.34264 77.01665 2230 ft 4 kts 155°
2026-04-20 09:37 43.34225 77.01690 2229 ft 7 kts 155°
2026-04-20 09:37 43.34178 77.01723 2227 ft 4 kts 148°
2026-04-20 09:37 43.34154 77.01753 2228 ft 3 kts 128°
2026-04-20 09:37 43.34150 77.01787 2230 ft 4 kts 85°
2026-04-20 09:38 43.34166 77.01827 2226 ft 5 kts 56°
2026-04-20 09:38 43.34169 77.01834 2228 ft 2 kts 56°
2026-04-20 09:38 43.34278 77.02056 2225 ft 64 kts 55°
2026-04-20 09:38 43.34656 77.02817 2226 ft 127 kts 56°
2026-04-20 09:39 43.35254 77.04024 2228 ft 176 kts 56°
2026-04-20 09:39 43.36012 77.05474 2687 ft 184 kts 52°
2026-04-20 09:39 43.36752 77.06914 3513 ft 186 kts 55°
2026-04-20 09:39 43.37512 77.08446 3917 ft 205 kts 56°
2026-04-20 09:40 43.38379 77.10148 4167 ft 230 kts 54°
2026-04-20 09:40 43.39350 77.12016 4596 ft 246 kts 54°
2026-04-20 09:40 43.40364 77.13956 5341 ft 252 kts 55°
2026-04-20 09:40 43.41057 77.15259 5786 ft 257 kts 51°
2026-04-20 09:41 43.42513 77.16764 6261 ft 272 kts 18°
2026-04-20 09:41 43.44409 77.16885 6861 ft 279 kts 345°
2026-04-20 09:41 43.46227 77.15931 7572 ft 281 kts 330°
2026-04-20 09:41 43.47940 77.14637 8353 ft 281 kts 328°
2026-04-20 09:42 43.49654 77.13299 8912 ft 286 kts 329°
2026-04-20 09:42 43.51374 77.11944 9058 ft 283 kts 321°
2026-04-20 09:42 43.52786 77.10089 9076 ft 280 kts 306°
2026-04-20 09:42 43.53777 77.07805 9188 ft 279 kts 289°
2026-04-20 09:43 43.54253 77.05235 9964 ft 277 kts 274°
2026-04-20 09:43 43.54389 77.02554 10429 ft 290 kts 272°
2026-04-20 09:43 43.54511 76.99675 10566 ft 312 kts 272°
2026-04-20 09:43 43.54651 76.96616 10900 ft 324 kts 273°
2026-04-20 09:44 43.54833 76.93498 11481 ft 329 kts 274°
2026-04-20 09:44 43.55035 76.90345 12110 ft 332 kts 274°
2026-04-20 09:44 43.55243 76.87165 12740 ft 335 kts 274°
2026-04-20 09:44 43.55449 76.83958 13360 ft 338 kts 274°
2026-04-20 09:45 43.55648 76.80758 13940 ft 341 kts 274°
2026-04-20 09:45 43.55845 76.77489 14505 ft 344 kts 274°
2026-04-20 09:45 43.56038 76.74188 15047 ft 347 kts 274°
2026-04-20 09:45 43.56230 76.70863 15598 ft 350 kts 274°
2026-04-20 09:46 43.56423 76.67507 16153 ft 352 kts 274°
2026-04-20 09:46 43.56615 76.64120 16699 ft 355 kts 274°
2026-04-20 09:46 43.56808 76.60715 17248 ft 358 kts 274°
2026-04-20 09:46 43.57004 76.57278 17782 ft 361 kts 275°
2026-04-20 09:47 43.57203 76.53812 18303 ft 364 kts 275°
2026-04-20 09:47 43.57404 76.50324 18762 ft 367 kts 275°
2026-04-20 09:47 43.57605 76.46809 19225 ft 369 kts 276°
2026-04-20 09:47 43.57804 76.43270 19691 ft 371 kts 276°
2026-04-20 09:48 43.58003 76.39715 20143 ft 373 kts 277°
2026-04-20 09:48 43.58200 76.36134 20596 ft 375 kts 277°
2026-04-20 09:48 43.58398 76.32536 21045 ft 377 kts 277°
2026-04-20 09:48 43.58595 76.28916 21495 ft 379 kts 278°
2026-04-20 09:49 43.58792 76.25282 21928 ft 381 kts 278°
2026-04-20 09:49 43.58989 76.21620 22352 ft 383 kts 279°
2026-04-20 09:49 43.59186 76.17945 22757 ft 385 kts 279°
2026-04-20 09:49 43.59384 76.14250 23173 ft 387 kts 280°
2026-04-20 09:50 43.59583 76.10531 23588 ft 389 kts 280°
2026-04-20 09:50 43.59782 76.06800 23937 ft 391 kts 280°
2026-04-20 09:50 43.59980 76.03047 24271 ft 393 kts 280°
2026-04-20 09:50 43.60176 75.99270 24601 ft 396 kts 280°
2026-04-20 09:51 43.60370 75.95478 24926 ft 398 kts 281°
2026-04-20 09:51 43.60563 75.91712 25246 ft 400 kts 281°
2026-04-20 09:51 43.60758 75.87831 25578 ft 402 kts 281°
2026-04-20 09:51 43.60950 75.84027 25905 ft 403 kts 280°
2026-04-20 09:52 43.61146 75.80152 26216 ft 406 kts 280°
2026-04-20 09:52 43.61342 75.76257 26518 ft 408 kts 280°
2026-04-20 09:52 43.61539 75.72342 26820 ft 410 kts 280°
2026-04-20 09:52 43.61735 75.68411 27125 ft 412 kts 280°
2026-04-20 09:53 43.61929 75.64458 27430 ft 414 kts 280°
2026-04-20 09:53 43.62122 75.60487 27740 ft 416 kts 280°
2026-04-20 09:53 43.62317 75.56488 28041 ft 418 kts 280°
2026-04-20 09:53 43.62508 75.52478 28340 ft 420 kts 280°
2026-04-20 09:54 43.62699 75.48443 28644 ft 422 kts 279°
2026-04-20 09:54 43.62888 75.44391 28934 ft 424 kts 279°
2026-04-20 09:54 43.63079 75.40324 29229 ft 426 kts 279°
2026-04-20 09:54 43.63273 75.36236 29511 ft 427 kts 280°
2026-04-20 09:55 43.63467 75.32131 29794 ft 429 kts 279°
2026-04-20 09:55 43.63656 75.28013 30064 ft 431 kts 279°
2026-04-20 09:55 43.63842 75.23872 30294 ft 433 kts 279°
2026-04-20 09:55 43.64027 75.19723 30505 ft 434 kts 279°
2026-04-20 09:56 43.64211 75.15558 30714 ft 435 kts 279°
2026-04-20 09:56 43.64393 75.11406 30970 ft 435 kts 279°
2026-04-20 09:56 43.64574 75.07231 31291 ft 433 kts 280°
2026-04-20 09:56 43.64755 75.03092 31586 ft 432 kts 280°
2026-04-20 09:57 43.64935 74.98960 31881 ft 430 kts 280°
2026-04-20 09:57 43.65114 74.94840 32149 ft 430 kts 280°
2026-04-20 09:57 43.65289 74.90724 32436 ft 429 kts 280°
2026-04-20 09:57 43.65459 74.86673 32711 ft 428 kts 280°
2026-04-20 09:58 43.65630 74.82578 32991 ft 426 kts 280°
2026-04-20 09:58 43.65798 74.78498 33272 ft 425 kts 280°
2026-04-20 09:58 43.65967 74.74426 33555 ft 424 kts 280°
2026-04-20 09:58 43.66137 74.70364 33849 ft 423 kts 280°
2026-04-20 09:59 43.66301 74.66318 34118 ft 422 kts 279°
2026-04-20 09:59 43.66461 74.62272 34358 ft 421 kts 279°
2026-04-20 09:59 43.66618 74.58240 34587 ft 420 kts 279°
2026-04-20 09:59 43.66773 74.54216 34797 ft 420 kts 279°
2026-04-20 10:00 43.66877 74.51552 34937 ft 419 kts 279°
2026-04-20 10:00 43.66925 74.50349 35004 ft 419 kts 279°
2026-04-20 10:00 43.67057 74.47003 35171 ft 418 kts 279°
2026-04-20 10:00 43.67215 74.42995 35381 ft 418 kts 279°
2026-04-20 10:01 43.67370 74.38984 35595 ft 417 kts 279°
2026-04-20 10:01 43.67519 74.34992 35826 ft 416 kts 279°
2026-04-20 10:01 43.67666 74.30999 35994 ft 416 kts 278°
2026-04-20 10:01 43.67811 74.27013 36033 ft 414 kts 278°
2026-04-20 10:02 43.68101 74.19127 36030 ft 413 kts 278°
2026-04-20 10:02 43.68386 74.11209 36029 ft 413 kts 278°
2026-04-20 10:03 43.68661 74.03290 36028 ft 412 kts 278°
2026-04-20 10:03 43.68931 73.95378 36021 ft 412 kts 278°
2026-04-20 10:04 43.69197 73.87459 36030 ft 413 kts 277°